[[{"header":{"parameterUnit":"m.s-1","parameterCategory":1,"la1":30.2991,"la2":30.254,"lo1":-89.0895,"lo2":-89.0444,"dy":0.0017,"dx":0.0017,"nx":28,"ny":28,"refTime":"2023-08-08T09:00:00:Z","depth":0,"parameterNumber":2,"parameterNumberName":"U-component_of_WINDS"},"data":[0,0,0,0,0,0,0,0,0,0,0,0,0,0,0,0,0,0,0,0,0,0,0,0,0,0,0,0,0,0,0,0,0,0,0,0,0,0,0,0,0,0,0,0,0,0,0,0,0,0,0,0,0,0,0,0,0,0,4.6946,4.6947,0,4.7018,4.7019,4.702,4.6969,4.6967,4.6965,4.6963,4.7035,4.7039,4.7043,0,0,0,0,0,0,0,0,0,0,0,0,0,4.6761,4.6764,4.6946,4.6947,4.6948,4.7018,4.7019,4.702,4.697,4.6967,4.6964,4.6962,4.7034,4.7038,4.7043,0,0,0,0,0,0,0,0,0,0,0,0,0,4.6838,4.6766,4.6946,4.6931,4.6931,4.7018,4.7019,4.702,4.697,4.6967,4.6963,4.696,4.7032,4.7038,4.7044,4.7149,0,0,4.7062,4.7065,0,0,0,0,0,0,0,0,4.6833,4.6845,4.6933,4.6933,4.6932,4.6981,4.698,4.7063,4.6971,4.6955,4.6963,4.6959,4.702,4.7027,4.7047,4.7152,4.7155,4.7063,4.7066,4.7069,4.7071,0,0,0,0,0,0,0,4.6828,4.6841,4.6975,4.6934,4.6934,4.692,4.6927,4.6996,4.7006,4.6956,4.6953,4.6962,4.7019,4.7042,4.7049,4.7156,4.7063,4.7068,4.7072,4.7074,4.7345,4.7349,0,0,0,0,0,0,4.6825,4.6837,4.6972,4.6977,4.6873,4.6926,4.6934,4.6969,4.7005,4.7007,4.6965,4.696,4.7033,4.7042,4.7051,4.7172,4.7069,4.7075,4.7078,4.7342,4.7346,4.735,0,0,0,0,0,0,4.6821,4.6837,4.6969,4.6906,4.6922,4.6933,4.6972,4.6972,4.6995,4.7011,4.7012,4.6987,4.7031,4.7043,4.7124,4.7174,4.7077,4.7083,4.7337,4.7343,4.7348,4.7418,0,0,0,0,0,0,4.6816,4.6836,4.6878,4.6907,4.6925,4.7043,4.6976,4.6976,4.7006,4.6999,4.7032,4.7034,4.7029,4.7115,4.713,4.7181,4.7088,4.7333,4.734,4.7346,4.7411,4.7425,4.7437,0,0,0,0,0,4.6809,4.6896,4.688,4.6897,4.6978,4.7046,4.7056,4.7049,4.701,4.705,4.706,4.7033,4.7167,4.7124,4.714,4.7194,4.733,4.7338,4.7346,4.7406,4.7423,4.7437,0,0,0,0,0,0,4.6872,4.6899,4.6882,4.6981,4.7011,4.7037,4.7088,4.7068,4.7109,4.7102,4.709,4.7098,4.7182,4.7196,4.7148,4.7294,4.7242,4.7254,4.7282,4.7298,4.7311,4.7304,4.7093,0,0,0,0,0,4.6897,4.6951,4.6972,4.7057,4.7073,4.7078,4.7108,4.7099,4.713,4.7142,4.7158,4.7188,4.7236,4.7268,4.7314,4.7414,4.7418,4.7458,4.7471,4.7482,4.7491,4.754,4.7557,4.7376,4.7376,4.7376,0,0,4.695,4.6972,4.7007,4.707,4.7092,4.7146,4.7089,4.715,4.7189,4.7151,4.7228,4.724,4.7273,4.7362,4.7403,4.7377,4.7542,4.7492,4.75,4.7504,4.755,4.7567,4.7582,4.7382,4.7381,4.738,0,0,4.7073,4.7097,4.7167,4.719,4.7224,4.7227,4.7244,4.7272,4.7278,4.7355,4.7326,4.7372,4.7457,4.748,4.7503,4.763,4.7605,4.7645,4.7712,4.7759,4.7773,4.7786,4.7827,4.7842,4.7655,4.7655,4.7655,0,4.7134,4.7215,4.7206,4.7268,4.7294,4.7262,4.7332,4.7355,4.7402,4.742,4.7391,4.7493,4.7513,4.7605,4.7636,4.7657,4.7673,4.764,4.7772,4.7785,4.7796,4.7835,4.7851,4.7659,4.7659,4.7659,4.7658,0,4.7286,4.7342,4.7395,4.744,4.7473,4.7539,4.7538,4.7572,4.756,4.7564,4.764,4.7663,4.771,4.7732,4.7722,4.7821,4.7804,4.7774,4.772,4.7818,4.7854,4.7869,4.7666,4.7664,4.7663,4.7662,0,0,4.7451,4.7488,4.7507,4.7525,4.7559,4.7601,4.7664,4.771,4.7737,4.7771,4.782,4.7891,4.7862,4.7887,4.7879,4.7921,4.8015,4.7885,4.7886,4.7905,4.8121,4.814,4.8158,4.7999,4.8002,4.8005,4.8116,0,4.7572,4.7681,4.7673,4.7775,4.7824,4.7792,4.7846,4.7871,4.7877,4.7918,4.7924,4.7972,4.7933,4.7947,4.7988,4.7995,4.8057,4.7987,4.8042,4.8044,4.8032,4.8178,4.82,4.8304,4.8131,4.8133,4.8135,0,4.7729,4.7765,4.7871,4.7893,4.7913,4.7962,4.8001,4.8042,4.8069,4.8069,4.8096,4.808,4.8139,4.8086,4.8167,4.8119,4.8141,4.8148,4.8151,4.8154,4.8094,4.818,4.8338,4.8352,4.8158,4.8156,4.8155,0,4.7833,4.7909,4.7981,4.7998,4.8026,4.806,4.8074,4.8097,4.8123,4.8157,4.8174,4.8215,4.8236,4.8267,4.8261,4.8224,4.8342,4.8289,4.8341,4.8341,4.8365,4.8363,4.8525,4.8385,4.8385,4.8385,4.8385,0,4.7967,4.8032,4.8027,4.8071,4.8142,4.8131,4.8201,4.821,4.8231,4.8274,4.825,4.8291,4.8282,4.8322,4.8318,4.8382,4.8394,4.8394,4.8391,4.8394,4.8393,4.8406,4.8397,4.8389,4.8388,4.8387,4.8387,0,4.8095,4.8095,4.817,4.819,4.8196,4.8247,4.8263,4.8303,4.8305,4.836,4.8372,4.8376,4.8422,4.8419,4.8472,4.8468,4.8546,4.8537,4.8537,4.8534,4.8584,4.8578,4.8757,4.8778,4.8629,4.863,4.8631,0,4.8179,4.8227,4.8251,4.8278,4.8293,4.8338,4.8364,4.8355,4.8383,4.8414,4.845,4.8493,4.8527,4.8601,4.8607,4.8646,4.8635,4.8695,4.864,4.864,4.863,4.8626,4.8629,4.8704,4.8706,4.8708,4.8709,0,4.8326,4.8322,4.8361,4.8399,4.843,4.846,4.8487,4.851,4.8503,4.8535,4.8581,4.8607,4.8659,4.87,4.8736,4.8748,4.8726,4.8726,4.8739,4.8741,4.8737,4.8735,4.8562,4.8721,4.872,4.8719,4.8718,4.8718,4.8431,4.8471,4.8493,4.8536,4.8555,4.8579,4.8616,4.8622,4.8661,4.8701,4.8693,4.8744,4.8765,4.8811,4.8826,4.8864,4.8842,4.8863,4.8867,4.8871,4.8875,4.8734,4.8871,4.8871,4.887,4.887,4.887,0,4.8574,4.8585,4.8625,4.8662,4.8694,4.8671,4.8699,4.8727,4.8771,4.8793,4.8826,4.8877,4.8916,4.8925,4.8962,4.899,4.8981,4.9,4.8996,4.8998,4.8895,4.8877,4.9007,4.9007,4.9007,4.9007,4.9007,4.9007,4.8651,4.8716,4.8715,4.8787,4.8798,4.8847,4.8864,4.8885,4.8902,4.8959,4.8991,4.8997,4.9012,4.905,4.9084,4.9085,4.9098,4.9121,4.9118,4.902,4.9006,4.8993,4.8977,4.9125,4.9125,4.9218,4.9219,4.9219]},{"header":{"parameterUnit":"m.s-1","parameterCategory":1,"la1":30.2991,"la2":30.254,"lo1":-89.0895,"lo2":-89.0444,"dy":0.0017,"dx":0.0017,"nx":28,"ny":28,"refTime":"2023-08-08T09:00:00:Z","depth":0,"parameterNumber":3,"parameterNumberName":"V-component_of_WINDS"},"data":[0,0,0,0,0,0,0,0,0,0,0,0,0,0,0,0,0,0,0,0,0,0,0,0,0,0,0,0,0,0,0,0,0,0,0,0,0,0,0,0,0,0,0,0,0,0,0,0,0,0,0,0,0,0,0,0,0,0,4.8104,4.8107,0,4.8353,4.8356,4.8359,4.8375,4.8373,4.837,4.8367,4.8623,4.8632,4.8642,0,0,0,0,0,0,0,0,0,0,0,0,0,4.7642,4.765,4.8104,4.8107,4.811,4.8353,4.8356,4.836,4.8376,4.8373,4.8369,4.8366,4.862,4.8631,4.8642,0,0,0,0,0,0,0,0,0,0,0,0,0,4.7862,4.7653,4.8104,4.8148,4.8154,4.8352,4.8356,4.8361,4.8377,4.8372,4.8368,4.8364,4.8616,4.863,4.8644,4.8815,0,0,4.8687,4.8693,0,0,0,0,0,0,0,0,4.7849,4.7879,4.8138,4.8145,4.8153,4.8329,4.8287,4.8513,4.8378,4.8292,4.8367,4.8362,4.8529,4.855,4.8606,4.8827,4.8838,4.8688,4.8697,4.8703,4.8707,0,0,0,0,0,0,0,4.7834,4.7868,4.8203,4.8142,4.8151,4.8155,4.8181,4.833,4.8431,4.8299,4.8301,4.833,4.8532,4.8592,4.8612,4.8842,4.8688,4.8701,4.8709,4.8715,4.9213,4.9218,0,0,0,0,0,0,4.781,4.7855,4.8195,4.821,4.7987,4.8166,4.8196,4.8277,4.8429,4.8449,4.8334,4.833,4.857,4.8595,4.8621,4.883,4.8703,4.8716,4.8724,4.9209,4.9214,4.9219,0,0,0,0,0,0,4.78,4.784,4.8185,4.8033,4.8077,4.8179,4.8269,4.8284,4.8344,4.8455,4.8473,4.8377,4.8568,4.8601,4.8766,4.8839,4.8723,4.8735,4.9203,4.921,4.9217,4.925,0,0,0,0,0,0,4.7787,4.7837,4.7903,4.8035,4.8085,4.8326,4.8274,4.8292,4.8368,4.8366,4.8501,4.8519,4.8567,4.8745,4.878,4.8856,4.8746,4.9197,4.9206,4.9215,4.9243,4.9257,4.9269,0,0,0,0,0,4.777,4.7904,4.7907,4.7948,4.8171,4.8331,4.836,4.8412,4.8374,4.8441,4.8512,4.8514,4.8825,4.8762,4.8801,4.8883,4.9192,4.9204,4.9214,4.9237,4.9254,4.9269,0,0,0,0,0,0,4.778,4.7922,4.7927,4.8107,4.8206,4.8333,4.842,4.843,4.8543,4.8536,4.8596,4.8626,4.8789,4.8853,4.8779,4.9055,4.9004,4.9024,4.9008,4.9026,4.9039,4.902,4.8758,0,0,0,0,0,4.7802,4.792,4.8038,4.8185,4.8235,4.8318,4.839,4.8421,4.8527,4.857,4.8653,4.8756,4.8876,4.8954,4.9072,4.9251,4.928,4.9327,4.934,4.9351,4.9367,4.9464,4.9486,4.9255,4.9255,4.9254,0,0,4.7851,4.7943,4.8014,4.8189,4.827,4.839,4.8354,4.8483,4.8573,4.859,4.875,4.8814,4.8933,4.9105,4.9185,4.9163,4.9436,4.9364,4.9372,4.9382,4.9477,4.9499,4.9518,4.9262,4.9261,4.9259,0,0,4.8,4.8083,4.8213,4.8294,4.8416,4.8471,4.8502,4.8627,4.867,4.8832,4.8846,4.8953,4.916,4.9243,4.9312,4.949,4.9495,4.9526,4.9597,4.9691,4.9709,4.9725,4.9787,4.9809,4.9541,4.9542,4.9542,0,4.8046,4.8227,4.8279,4.8407,4.8483,4.8502,4.8634,4.8711,4.8865,4.8917,4.8889,4.9147,4.9229,4.9419,4.9462,4.9518,4.9555,4.9511,4.9702,4.9719,4.9735,4.9795,4.9818,4.9544,4.9544,4.9544,4.9544,0,4.8276,4.8401,4.8492,4.8639,4.8725,4.8854,4.8925,4.9006,4.9028,4.9085,4.9248,4.9346,4.9482,4.953,4.9554,4.9724,4.9706,4.969,4.964,4.9759,4.9816,4.984,4.9549,4.9548,4.9547,4.9546,0,0,4.844,4.8612,4.8645,4.871,4.8845,4.8943,4.9072,4.9205,4.9272,4.9377,4.9486,4.9659,4.9644,4.9722,4.9756,4.9839,4.9971,4.9813,4.9816,4.9838,5.0162,5.0173,5.0198,4.9975,4.9979,4.9983,5.0151,0,4.8604,4.8835,4.8884,4.9082,4.9198,4.9216,4.9328,4.9423,4.9479,4.9584,4.9646,4.9767,4.9739,4.9786,4.9868,4.9937,5.0037,4.9926,5.0076,5.0081,5.0046,5.0229,5.0242,5.0396,5.0174,5.0178,5.0181,0,4.8827,4.8936,4.9145,4.9262,4.9313,4.9413,4.9537,4.9638,4.9744,4.9779,4.9865,4.9889,5.0022,4.9965,5.015,5.0073,5.0137,5.018,5.0187,5.0204,5.0138,5.0249,5.0446,5.0469,5.0217,5.0214,5.0211,0,4.8924,4.9123,4.9274,4.933,4.9471,4.954,4.9602,4.9704,4.978,4.9888,4.9937,5.0059,5.0126,5.022,5.0275,5.0229,5.0455,5.0403,5.0487,5.0485,5.0534,5.053,5.0744,5.0576,5.0575,5.0575,5.0575,0,4.9102,4.923,4.9319,4.9412,4.9554,4.9608,4.9748,4.9809,4.99,5.0004,5.0028,5.0125,5.0193,5.0299,5.0344,5.0488,5.0519,5.055,5.056,5.0548,5.0544,5.0591,5.0582,5.0581,5.058,5.0579,5.0578,0,4.9236,4.9301,4.9466,4.9584,4.9617,4.9717,4.9818,4.9908,4.9963,5.0095,5.0129,5.0215,5.0341,5.0406,5.0564,5.0593,5.0756,5.076,5.072,5.0724,5.0804,5.0795,5.1055,5.1092,5.0899,5.0901,5.0903,0,4.9345,4.9443,4.9571,4.9642,4.9705,4.982,4.9896,4.9952,5.0031,5.0158,5.0232,5.0359,5.0464,5.0665,5.0741,5.0861,5.0868,5.0951,5.0887,5.087,5.0869,5.0862,5.0871,5.0962,5.0964,5.0966,5.0967,0,4.9531,4.9558,4.9667,4.9787,4.9877,4.9974,5.007,5.0127,5.0199,5.0285,5.0414,5.0495,5.0655,5.078,5.0906,5.0969,5.098,5.0986,5.1012,5.1,5.0973,5.0988,5.0751,5.098,5.0979,5.0978,5.0977,5.0977,4.9656,4.9742,4.9846,4.9966,5.0043,5.0132,5.0221,5.0287,5.0395,5.0529,5.0555,5.0691,5.0793,5.0962,5.1028,5.1135,5.1118,5.1155,5.1164,5.1173,5.1176,5.0955,5.1158,5.1158,5.1158,5.1157,5.1157,0,4.9842,4.9908,5.0018,5.0151,5.0245,5.0246,5.0351,5.043,5.0549,5.0642,5.0744,5.0891,5.1012,5.1097,5.122,5.1288,5.1296,5.1319,5.1314,5.1328,5.1185,5.115,5.131,5.131,5.131,5.131,5.131,5.131,4.995,5.0097,5.0135,5.032,5.0386,5.0518,5.0578,5.0659,5.0734,5.0897,5.0997,5.1051,5.1141,5.127,5.1381,5.1402,5.1446,5.1468,5.149,5.1355,5.1339,5.1323,5.1291,5.1478,5.1478,5.1625,5.1626,5.1627]}]]